Torna al catalogo

CENTISPACE-2 S9

AttivoNavigazioneLEO
NORAD 68358·PAYLOAD·🇨🇳 China

Lanciato Mar 22, 2026 da Yellow Sea Launch Area

Loading…

Prossimi Passaggi (prossime 24 ore)

TLE

AggiornatoSource: Space-Track

Epoca: Sep 13, 2026, 22:12 UTC

1 68358U 26060J   26256.92513709 -.00000134  00000-0  98707-5 0  9996
2 68358  54.9798  51.0985 0007128 261.9976  98.0192 14.25316660 25594

Traccia CENTISPACE-2 S9 in tempo reale con AllMySat

Download on the App Store